User: anonymous   Login
Location: Muenchen
(48.1800°N, 11.5800°E)
Time: 06:56:00
(UTC+01:00)
Language:

Sich 1 Rocket - Orbit

View from above orbital plane
View from above orbital plane
View from above satellite
View from above satellite

Ground track
Ground track

The orbit data is extracted from the following two-line orbital elements,

1 23659U 95046C   14298.48075346  .00000630  00000-0  84020-4 0   561
2 23659 082.5279 121.3413 0026907 149.9303 269.6540 14.77845023 31892
Epoch (UTC): 25 October 2014 11:32:17
Eccentricity: 0.0026907
inclination: 82.5279°
perigee height: 617 km
apogee height: 655 km
right ascension of ascending node: 121.3413°
argument of perigee: 149.9303°
revolutions per day: 14.77845023
mean anomaly at epoch: 269.6540°
orbit number at epoch: 3189

The dashed part of the orbit path shows where the satellite is in the earth's shadow,  

DLR